Weather History for Randolph AFB, TX

Change the Weather History Date:

Tuesday, November 22, 2011

  Actual Average Record
Temperature  
Mean Temperature 66 °F -  
Max Temperature 79 °F 67 °F 84 °F (1999)
Min Temperature 53 °F 48 °F 35 °F (2013)
Cooling Degree Days 2    
Growing Degree Days 16 (Base 50)    
Moisture  
Dew Point 62 °F    
Average Humidity 78    
Maximum Humidity 94    
Minimum Humidity 27    
Precipitation  
Precipitation 0.01 in - - ()
Sea Level Pressure  
Sea Level Pressure 29.95 in    
Wind  
Wind Speed 7 mph (SW)    
Max Wind Speed 21 mph    
Max Gust Speed 28 mph    
Visibility 9 miles    
Events Rain    
Averages and records for this station are not official NWS values.
T = Trace of Precipitation, MM = Missing Value Source: NWS Daily Summary

Daily Weather History Graph

Daily Weather History Graph

Search for Another Location

Airport:

Trip Planner

Search our weather history database for the weather conditions in past years. The results will help you decide how hot, cold, wet, or windy it might be!

Date:

Astronomy

Nov. 22, 2011 Rise Set
Actual Time 7:02 AM CST 5:35 PM CST
Civil Twilight 6:37 AM CST 6:00 PM CST
Nautical Twilight 6:08 AM CST 6:29 PM CST
Astronomical Twilight 5:39 AM CST 6:58 PM CST
Moon 4:04 AM CST (11/22) 3:28 PM CST (11/22)
Length of Visible Light 11h 23m
Length of Day
10h 32m
Waning Crescent, 9% of the Moon is Illuminated
Nov 22
Waning Crescent
Nov 25
New
Dec 2
First Quarter
Dec 10
Full
Dec 17
Last Quarter

Hourly Weather History & Observations

Time (CST) Temp. Dew Point Humidity Pressure Visibility Wind Dir Wind Speed Gust Speed Precip Events Conditions
12:29 AM 73.4 °F 69.8 °F 88% 29.90 in 10.0 mi SSE 6.9 mph - N/A   Overcast
12:34 AM 73.4 °F 69.8 °F 88% 29.90 in 10.0 mi SSE 5.8 mph - N/A   Overcast
12:36 AM 73.4 °F 69.8 °F 88% 29.90 in 10.0 mi SSE 5.8 mph - N/A   Overcast
12:39 AM 73.4 °F 69.8 °F 88% 29.90 in 10.0 mi SSE 5.8 mph - N/A   Overcast
12:43 AM 73.4 °F 69.8 °F 88% 29.89 in 10.0 mi SSE 5.8 mph - N/A   Overcast
12:50 AM 73.4 °F 69.8 °F 88% 29.88 in 10.0 mi SSE 5.8 mph - N/A   Overcast
12:55 AM 72.9 °F 70.0 °F 91% 29.89 in 10.0 mi SSE 5.8 mph - N/A   Overcast
12:59 AM 73.4 °F 69.8 °F 88% 29.89 in 10.0 mi SSE 5.8 mph - N/A   Overcast
1:05 AM 73.4 °F 69.8 °F 88% 29.89 in 10.0 mi SSE 5.8 mph - N/A   Overcast
1:39 AM 73.4 °F 69.8 °F 88% 29.89 in 10.0 mi South 3.5 mph - N/A   Overcast
1:54 AM 73.4 °F 69.8 °F 88% 29.90 in 10.0 mi South 3.5 mph - N/A   Overcast
1:56 AM 73.4 °F 69.8 °F 88% 29.90 in 10.0 mi Calm Calm - N/A   Overcast
2:02 AM 73.4 °F 69.8 °F 88% 29.90 in 10.0 mi SSW 3.5 mph - N/A   Overcast
2:34 AM 73.4 °F 69.8 °F 88% 29.91 in 10.0 mi Calm Calm - N/A   Overcast
2:47 AM 73.4 °F 69.8 °F 88% 29.91 in 10.0 mi SSW 3.5 mph - N/A   Overcast
2:52 AM 73.4 °F 69.8 °F 88% 29.90 in 10.0 mi SSW 3.5 mph - N/A   Overcast
2:55 AM 73.0 °F 69.8 °F 90% 29.90 in 10.0 mi South 3.5 mph - N/A   Overcast
2:56 AM 73.4 °F 69.8 °F 88% 29.90 in 10.0 mi South 4.6 mph - N/A   Overcast
2:57 AM 73.4 °F 69.8 °F 88% 29.90 in 10.0 mi South 4.6 mph - N/A   Overcast
3:00 AM 73.4 °F 69.8 °F 88% 29.90 in 10.0 mi South 5.8 mph - N/A   Overcast
3:01 AM 73.4 °F 69.8 °F 88% 29.90 in 10.0 mi South 5.8 mph - N/A   Overcast
3:03 AM 73.4 °F 69.8 °F 88% 29.90 in 10.0 mi South 5.8 mph - N/A   Overcast
3:08 AM 73.4 °F 69.8 °F 88% 29.89 in 7.0 mi South 8.1 mph - N/A   Overcast
3:09 AM 73.4 °F 69.8 °F 88% 29.89 in 7.0 mi South 8.1 mph - N/A   Overcast
3:13 AM 73.4 °F 69.8 °F 88% 29.89 in 5.0 mi South 8.1 mph - N/A   Overcast
3:15 AM 73.4 °F 69.8 °F 88% 29.89 in 5.0 mi South 8.1 mph - N/A   Overcast
3:16 AM 73.4 °F 69.8 °F 88% 29.89 in 4.0 mi South 8.1 mph - N/A   Overcast
3:19 AM 73.4 °F 69.8 °F 88% 29.89 in 5.0 mi South 8.1 mph - N/A   Overcast
3:20 AM 73.4 °F 69.8 °F 88% 29.89 in 5.0 mi South 8.1 mph - N/A   Overcast
3:35 AM 73.4 °F 69.8 °F 88% 29.90 in 6.0 mi South 6.9 mph - N/A   Overcast
3:39 AM 73.4 °F 69.8 °F 88% 29.90 in 7.0 mi SSW 5.8 mph - N/A   Overcast
3:41 AM 73.4 °F 69.8 °F 88% 29.91 in 8.0 mi SSW 4.6 mph - N/A   Overcast
3:43 AM 73.4 °F 69.8 °F 88% 29.91 in 9.0 mi SSW 4.6 mph - N/A   Overcast
3:44 AM 73.4 °F 69.8 °F 88% 29.91 in 9.0 mi SSW 4.6 mph - N/A   Overcast
3:46 AM 73.4 °F 69.8 °F 88% 29.91 in 10.0 mi South 5.8 mph - N/A   Overcast
3:55 AM 72.7 °F 70.0 °F 91% 29.89 in 8.0 mi SSE 11.5 mph - N/A   Overcast
4:00 AM 71.6 °F 69.8 °F 94% 29.89 in 9.0 mi South 8.1 mph - N/A   Overcast
4:48 AM 69.8 °F 60.8 °F 73% 29.93 in 10.0 mi NNW 19.6 mph 27.6 mph N/A   Overcast
4:49 AM 69.8 °F 60.8 °F 73% 29.93 in 10.0 mi NNW 20.7 mph 27.6 mph N/A   Overcast
4:51 AM 68.0 °F 60.8 °F 78% 29.94 in 10.0 mi NW 18.4 mph 27.6 mph N/A   Mostly Cloudy
4:53 AM 68.0 °F 59.0 °F 73% 29.94 in 10.0 mi NNW 18.4 mph 25.3 mph N/A   Mostly Cloudy
4:54 AM 68.0 °F 59.0 °F 73% 29.94 in 10.0 mi NNW 19.6 mph 25.3 mph N/A   Mostly Cloudy
4:56 AM 68.0 °F 57.2 °F 68% 29.93 in 10.0 mi NNW 19.6 mph 25.3 mph N/A   Mostly Cloudy
4:59 AM 66.2 °F 57.2 °F 73% 29.98 in 10.0 mi NNW 12.7 mph 24.2 mph N/A   Overcast
5:15 AM 64.4 °F 57.2 °F 77% 29.94 in 10.0 mi NNW 11.5 mph - N/A   Light Drizzle
5:24 AM 64.4 °F 57.2 °F 77% 29.93 in 9.0 mi North 9.2 mph - N/A Rain Light Rain
5:38 AM 62.6 °F 57.2 °F 82% 29.94 in 10.0 mi NNW 6.9 mph - N/A   Light Drizzle
5:50 AM 62.6 °F 59.0 °F 88% 29.94 in 10.0 mi North 6.9 mph - N/A Rain Light Rain
5:55 AM 63.0 °F 58.6 °F 86% 29.94 in 10.0 mi NNW 6.9 mph - 0.01 in Rain Light Rain
6:02 AM 62.6 °F 59.0 °F 88% 29.95 in 10.0 mi North 6.9 mph - N/A   Overcast
6:55 AM 64.2 °F 59.0 °F 83% 29.97 in 10.0 mi North 10.4 mph - 0.00 in   Overcast
7:55 AM 64.2 °F 54.0 °F 69% 30.00 in 10.0 mi North 11.5 mph - N/A   Mostly Cloudy
8:55 AM 65.1 °F 53.2 °F 65% 30.03 in 10.0 mi NNW 12.7 mph - N/A   Overcast
9:55 AM 67.5 °F 53.1 °F 60% 30.05 in 10.0 mi North 13.8 mph - N/A   Mostly Cloudy
10:55 AM 73.0 °F 48.6 °F 42% 30.04 in 10.0 mi North 16.1 mph - N/A   Clear
11:55 AM 75.4 °F 46.8 °F 36% 30.03 in 10.0 mi North 12.7 mph - N/A   Clear
12:55 PM 76.5 °F 45.7 °F 33% 30.01 in 10.0 mi North 6.9 mph - N/A   Partly Cloudy
1:55 PM 77.7 °F 44.2 °F 30% 29.99 in 10.0 mi NW 8.1 mph - N/A   Clear
2:55 PM 79.2 °F 42.1 °F 27% 29.99 in 10.0 mi NW 11.5 mph - N/A   Clear
3:55 PM 77.9 °F 46.2 °F 33% 30.01 in 10.0 mi North 8.1 mph - N/A   Clear
4:55 PM 75.0 °F 48.6 °F 39% 30.03 in 10.0 mi NNE 9.2 mph - N/A   Clear
5:55 PM 69.3 °F 47.5 °F 46% 30.07 in 10.0 mi NNE 10.4 mph - N/A   Clear
6:55 PM 64.2 °F 50.4 °F 61% 30.12 in 10.0 mi NNE 11.5 mph - N/A   Clear
7:55 PM 61.0 °F 49.3 °F 65% 30.16 in 10.0 mi NNE 9.2 mph - N/A   Clear
8:55 PM 58.3 °F 48.4 °F 70% 30.19 in 10.0 mi NNE 10.4 mph - N/A   Clear
9:55 PM 55.9 °F 48.2 °F 75% 30.21 in 10.0 mi North 9.2 mph - N/A   Clear
10:55 PM 54.7 °F 48.4 °F 79% 30.22 in 10.0 mi North 8.1 mph - N/A   Clear
11:55 PM 53.6 °F 48.0 °F 81% 30.22 in 10.0 mi North 6.9 mph - N/A   Clear